Weather in Sittee River

Belize     16°51′14″N   88°16′53″W
temp.,
°C
wind,
m/s
gust,
m/s
humid.,
%
clouds,
%
prec.,
mm/h
press.,
hPa
HPBL,
m
15 may, sat
sat1500:00+27ene46806 1.8 1015727
03:00+27ene458022 0.7 1014671
06:00+27ene45807 2.0 1015644
09:00+28ene45796 1.3 1016846
12:00+28ne557521 2.6 1015880
15:00+28ne66727 0.5 10131038
18:00+27ne56775 0.6 1014757
21:00+27ene568031 0.0 1015728
16 may, sun
sun1600:00+27e457862 0.3 1014801
03:00+27e457187 0.1 1012877
06:00+27ene4676100 0.1 1014504
09:00+28e556795 0.1 10151011
12:00+29ene556751 0.2 1014966
15:00+29ene56725 0.0 1012959
18:00+28ne5676100 0.0 1013811
21:00+27ene677911 0.2 1014838
17 may, mon
mon1700:00+27e568029 0.4 1013719
03:00+27e4578100 0.1 1011814
06:00+27e4577100 0.2 1012608
09:00+28e557445 0.2 1014703
12:00+29ene567295 0.4 1013907
15:00+29ene6673100 0.1 1011916
18:00+28ne577740 0.1 1011807
21:00+27e6782100 0.2 1013761
18 may, tue
tue1800:00+27e458098 0.4 1013719
03:00+27ene4581100 0.1 1011608
06:00+27e4583100 0.6 1012506
09:00+28e447990 0.3 1012736
12:00+29ne547587 0.5 1011826
15:00+29ne667871 0.0 1009793
18:00+28ne5677100 0.1 1010734
21:00+28e6777100 0.1 1011876
19 may, wed
wed1900:00+27e5683100 5.6 1011519
03:00+22wsw101295100 70.1 1011490
06:00+24sse3482100 76.9 1010226
09:00+26sw117478 0.0 1012374
12:00+27se22713 0.0 1010526
15:00+27ene44723 0.0 1008511
18:00+27nne57800 0.0 1008483
21:00+28e568127 0.0 1010740